N6ZQK Weather Reports


Display with metric or nautical units.
time (UTC)temp
F
wind
direction
speed
MPH
gust
MPH
rain 1hr
in
rain 24hr
in
rain mn
in
humidity
%
barometer
mb
20260504193003 49 241 1.0 5.0 0.00 0.00 0.00 88 1013.3
20260504192424 49 253 1.0 5.0 0.00 0.00 0.00 88 1013.2
20260504191803 50 266 2.0 7.0 0.00 0.00 0.00 87 1013.3
20260504191203 50 265 1.0 7.0 0.00 0.00 0.00 87 1013.3
20260504190624 50 283 1.0 5.0 0.00 0.00 0.00 86 1013.3
20260504190003 50 310 1.0 5.0 0.00 0.00 0.00 84 1013.4
20260504185403 50 311 1.0 5.0 0.00 0.00 0.00 83 1013.4
20260504184803 50 312 1.0 5.0 0.00 0.00 0.00 82 1013.3
20260504184203 50 316 1.0 6.0 0.00 0.00 0.00 81 1013.3
20260504183603 50 313 2.0 6.0 0.00 0.00 0.00 81 1013.2
20260504183024 50 315 1.0 5.0 0.00 0.00 0.00 82 1013.1
20260504182403 50 331 1.0 5.0 0.00 0.00 0.00 81 1013.1
20260504181803 50 325 1.0 6.0 0.00 0.00 0.00 80 1013.1
20260504181224 50 314 2.0 6.0 0.00 0.00 0.00 79 1013.2
20260504180624 51 312 1.0 5.0 0.00 0.00 0.00 79 1013.1
20260504180003 51 323 1.0 6.0 0.00 0.00 0.00 79 1013.0
20260504175403 50 300 1.0 6.0 0.00 0.00 0.00 79 1013.0
20260504174803 50 281 1.0 5.0 0.00 0.00 0.00 79 1012.9
20260504174203 50 176 0.0 2.0 0.00 0.00 0.00 79 1012.9
20260504173603 50 176 0.0 2.0 0.00 0.00 0.00 80 1012.9
20260504173024 49 176 0.0 2.0 0.00 0.00 0.00 80 1013.0
20260504172403 49 176 0.0 2.0 0.00 0.00 0.00 80 1013.0
20260504171803 49 0 0.0 0.0 0.00 0.00 0.00 80 1012.9
20260504171224 49 176 0.0 2.0 0.00 0.00 0.00 81 1013.0
20260504170603 49 176 0.0 2.0 0.00 0.00 0.00 81 1012.9
20260504150603 48 152 0.0 4.0 0.00 0.00 0.00 86 1012.3
20260504141203 47 152 0.0 2.0 0.00 0.00 0.00 88 1012.2
20260504140624 47 152 0.0 2.0 0.00 0.00 0.00 88 1012.2
20260504130603 47 152 0.0 4.0 0.00 0.00 0.00 88 1011.7
20260504110603 48 169 1.0 5.0 0.00 0.00 0.00 86 1011.4
20260504100603 48 169 0.0 2.0 0.00 0.00 0.00 88 1011.1
20260504081803 49 229 0.0 2.0 0.00 0.00 0.00 89 1011.4
20260504081203 49 229 0.0 2.0 0.00 0.00 0.00 90 1011.4
20260504080603 49 229 0.0 2.0 0.00 0.00 0.00 90 1011.4
20260504050624 52 227 1.0 3.0 0.00 0.00 0.00 85 1011.0
20260504050003 52 227 0.0 3.0 0.00 0.00 0.00 86 1011.0
20260504045403 52 227 0.0 3.0 0.00 0.00 0.00 86 1011.0
20260504044824 52 227 1.0 4.0 0.00 0.00 0.00 86 1010.8
20260504044203 52 221 2.0 8.0 0.00 0.00 0.00 86 1010.7
20260504043624 52 194 1.0 8.0 0.00 0.00 0.00 87 1010.7
20260504043024 52 166 0.0 5.0 0.00 0.00 0.00 87 1010.6
20260504042403 52 165 0.0 4.0 0.00 0.00 0.00 86 1010.5
20260504041803 52 165 0.0 2.0 0.00 0.00 0.00 87 1010.6
20260504041203 52 0 0.0 0.0 0.00 0.00 0.00 87 1010.5
20260504040603 52 0 0.0 0.0 0.00 0.00 0.00 87 1010.5
20260504040024 52 0 0.0 0.0 0.00 0.00 0.00 87 1010.5
20260504035403 52 165 0.0 2.0 0.00 0.00 0.00 87 1010.5
20260504034804 52 165 0.0 1.0 0.00 0.00 0.00 87 1010.4
20260504034203 52 165 0.0 1.0 0.00 0.00 0.00 87 1010.3
20260504033603 52 165 0.0 2.0 0.00 0.00 0.00 87 1010.2
20260504033003 52 165 1.0 5.0 0.00 0.00 0.00 87 1010.2
20260504032403 52 166 1.0 4.0 0.00 0.00 0.00 87 1010.0
20260504031803 52 175 1.0 5.0 0.00 0.00 0.00 87 1009.9
20260504031203 52 227 0.0 2.0 0.00 0.00 0.00 87 1009.9
20260504030603 52 229 0.0 2.0 0.00 0.00 0.00 86 1009.9
20260504030003 52 229 0.0 2.0 0.00 0.00 0.00 86 1009.9
20260504025424 52 229 0.0 2.0 0.00 0.00 0.00 86 1009.8
20260504024803 52 229 0.0 2.0 0.00 0.00 0.00 86 1009.8
20260504024224 52 229 0.0 2.0 0.00 0.00 0.00 86 1009.6
20260504023603 52 229 0.0 2.0 0.00 0.00 0.00 86 1009.5
20260504023003 52 229 0.0 2.0 0.00 0.00 0.00 86 1009.4
20260504022403 52 229 0.0 3.0 0.00 0.00 0.00 86 1009.4
20260504021803 52 229 0.0 3.0 0.00 0.00 0.00 85 1009.5
20260504021203 52 230 1.0 8.0 0.00 0.00 0.00 85 1009.4
20260504020603 52 233 3.0 8.0 0.00 0.00 0.00 85 1009.5
20260504020003 52 230 3.0 7.0 0.00 0.00 0.00 86 1009.4
20260504015403 52 233 2.0 7.0 0.00 0.00 0.00 86 1009.3
20260504014803 52 237 1.0 5.0 0.00 0.00 0.00 86 1009.4
20260504014224 52 237 1.0 5.0 0.00 0.00 0.00 86 1009.2
20260504013603 53 237 0.0 3.0 0.00 0.00 0.00 85 1009.2
20260504013003 53 234 0.0 2.0 0.00 0.00 0.00 85 1009.3
20260504012424 53 234 0.0 3.0 0.00 0.00 0.00 85 1009.2
20260504011803 53 235 1.0 5.0 0.00 0.00 0.00 85 1009.1
20260504011224 53 229 2.0 6.0 0.00 0.00 0.00 85 1009.1
20260504010604 53 225 3.0 7.0 0.00 0.00 0.00 85 1009.0
20260504010003 52 233 2.0 7.0 0.00 0.00 0.00 85 1008.8
20260504005424 52 213 1.0 6.0 0.00 0.00 0.00 85 1008.9
20260504004824 52 219 2.0 6.0 0.00 0.00 0.00 85 1008.9
20260504004203 52 209 3.0 7.0 0.00 0.00 0.00 85 1008.9
20260504003603 52 204 3.0 7.0 0.00 0.00 0.00 86 1008.9
20260504003024 52 214 3.0 7.0 0.00 0.00 0.00 86 1008.7
20260504002403 52 216 1.0 5.0 0.00 0.00 0.00 86 1008.7
20260504001803 52 217 1.0 5.0 0.00 0.00 0.00 87 1008.6
20260504001203 52 245 1.0 5.0 0.00 0.00 0.00 86 1008.6
20260504000603 52 244 2.0 5.0 0.00 0.00 0.00 86 1008.5
20260504000003 52 238 2.0 5.0 0.00 0.00 0.00 87 1008.5
20260503235424 52 253 1.0 5.0 0.00 0.00 0.00 87 1008.4
20260503234803 52 316 1.0 4.0 0.00 0.00 0.00 86 1008.5
20260503234203 52 316 1.0 4.0 0.00 0.00 0.00 86 1008.5
20260503233603 52 321 1.0 5.0 0.00 0.00 0.00 86 1008.5
20260503233003 52 300 1.0 5.0 0.00 0.00 0.00 85 1008.8
20260503232403 53 288 0.0 4.0 0.00 0.00 0.00 85 1008.8
20260503231824 53 321 2.0 6.0 0.00 0.00 0.00 85 1009.0
20260503231203 53 306 1.0 6.0 0.00 0.00 0.00 85 1008.9
20260503230603 53 263 0.0 3.0 0.00 0.00 0.00 85 1009.1
20260503230003 53 260 1.0 3.0 0.00 0.00 0.00 85 1008.8
20260503225424 53 247 1.0 3.0 0.00 0.00 0.00 85 1008.9
20260503224803 53 239 1.0 3.0 0.00 0.00 0.00 85 1008.9
20260503224203 53 236 0.0 3.0 0.00 0.00 0.00 84 1008.9
20260503223624 53 235 0.0 2.0 0.00 0.00 0.00 85 1009.1
20260503223024 53 235 0.0 2.0 0.00 0.00 0.00 84 1009.1
20260503222403 53 228 2.0 6.0 0.00 0.00 0.00 84 1009.1
20260503221803 53 224 2.0 6.0 0.00 0.00 0.00 85 1009.0
20260503221203 53 213 0.0 3.0 0.00 0.00 0.00 84 1009.0
20260503220603 53 229 1.0 4.0 0.00 0.00 0.00 85 1009.0
20260503220003 53 227 1.0 4.0 0.00 0.00 0.00 84 1008.8
20260503215403 53 196 2.0 7.0 0.00 0.00 0.00 84 1009.0
20260503214824 53 196 1.0 7.0 0.00 0.00 0.00 84 1009.0
20260503214203 53 189 1.0 7.0 0.00 0.00 0.00 85 1008.7
20260503213603 53 190 1.0 8.0 0.00 0.00 0.00 84 1008.8
20260503213003 53 184 1.0 6.0 0.00 0.00 0.00 85 1008.9
20260503212403 53 188 3.0 8.0 0.00 0.00 0.00 84 1008.8
20260503211803 53 186 3.0 9.0 0.00 0.00 0.00 84 1008.8
20260503211203 53 179 3.0 9.0 0.00 0.00 0.00 84 1008.7
20260503210603 53 170 4.0 7.0 0.00 0.00 0.00 84 1008.7
20260503210004 53 169 3.0 9.0 0.00 0.00 0.00 84 1008.7
20260503205403 53 168 2.0 9.0 0.00 0.00 0.00 84 1008.6
20260503204803 53 180 3.0 7.0 0.00 0.00 0.00 83 1008.5
20260503204203 53 182 4.0 8.0 0.00 0.00 0.00 83 1008.6
20260503203603 54 203 3.0 10.0 0.00 0.00 0.00 83 1008.5
20260503203003 54 199 2.0 8.0 0.00 0.00 0.00 83 1008.6
20260503202403 54 219 2.0 6.0 0.00 0.00 0.00 82 1008.7
20260503201803 54 210 2.0 6.0 0.00 0.00 0.00 82 1008.6
20260503201203 54 186 2.0 8.0 0.00 0.00 0.00 80 1008.5
20260503200603 55 199 3.0 10.0 0.00 0.00 0.00 80 1008.5
20260503200003 55 213 4.0 10.0 0.00 0.00 0.00 79 1008.5
20260503195403 56 228 3.0 7.0 0.00 0.00 0.00 77 1008.3
20260503194803 56 224 3.0 8.0 0.00 0.00 0.00 75 1008.3
20260503194203 57 224 3.0 8.0 0.00 0.00 0.00 76 1008.4
20260503193603 58 213 4.0 12.0 0.00 0.00 0.00 74 1008.3